| time (UTC) | temp C | wind direction | speed KPH | gust KPH | rain 1hr cm | rain 24hr cm | rain mn cm | humidity % | barometer mb |
| 20260906161842 | 33 | 69 | 3.2 | 6.4 | 0.00 | 3.02 | 0.00 | 63 | 1010.3 |
| 20260906160345 | 32 | 284 | 3.2 | 8.0 | 0.00 | 3.02 | 0.00 | 65 | 1010.3 |
| 20260906154832 | 32 | 29 | 3.2 | 6.4 | 0.00 | 3.02 | 0.00 | 68 | 1010.2 |
| 20260906153348 | 31 | 55 | 3.2 | 8.0 | 0.00 | 3.02 | 0.00 | 69 | 1010.2 |
| 20260906151851 | 31 | 40 | 4.8 | 8.0 | 0.00 | 3.02 | 0.00 | 71 | 1010.2 |
| 20260906150332 | 30 | 26 | 1.6 | 4.8 | 0.00 | 3.02 | 0.00 | 74 | 1010.3 |
| 20260906144835 | 29 | 42 | 1.6 | 6.4 | 0.00 | 3.02 | 0.00 | 79 | 1010.3 |
| 20260906143325 | 28 | 305 | 0.0 | 4.8 | 0.00 | 3.02 | 0.00 | 79 | 1010.4 |
| 20260906141832 | 27 | 241 | 0.0 | 3.2 | 0.00 | 3.02 | 0.00 | 85 | 1010.6 |
| 20260906140356 | 26 | 26 | 1.6 | 4.8 | 0.00 | 3.02 | 0.00 | 93 | 1010.7 |
| 20260906134837 | 25 | 114 | 1.6 | 4.8 | 0.00 | 3.02 | 0.00 | 95 | 1010.5 |
| 20260906133325 | 24 | 32 | 3.2 | 4.8 | 0.00 | 3.02 | 0.00 | 96 | 1010.6 |
| 20260906131850 | 23 | 62 | 0.0 | 3.2 | 0.00 | 3.02 | 0.00 | 97 | 1010.6 |
| 20260906130332 | 23 | 62 | 0.0 | 3.2 | 0.00 | 3.02 | 0.00 | 97 | 1010.6 |
| 20260906124827 | 22 | 71 | 1.6 | 3.2 | 0.00 | 3.02 | 0.00 | 97 | 1010.6 |
| 20260906123330 | 22 | 71 | 0.0 | 0.0 | 0.00 | 3.02 | 0.00 | 97 | 1010.5 |
| 20260906121828 | 21 | 77 | 0.0 | 0.0 | 0.00 | 3.02 | 0.00 | 97 | 1010.4 |
| 20260906120325 | 21 | 77 | 0.0 | 0.0 | 0.00 | 3.02 | 0.00 | 96 | 1010.3 |
| 20260906114832 | 21 | 77 | 0.0 | 0.0 | 0.00 | 3.02 | 0.00 | 96 | 1010.2 |
| 20260906113336 | 21 | 77 | 0.0 | 0.0 | 0.00 | 3.02 | 0.00 | 95 | 1009.9 |
| 20260906111825 | 21 | 77 | 0.0 | 0.0 | 0.00 | 3.02 | 0.00 | 95 | 1009.7 |
| 20260906110331 | 21 | 77 | 0.0 | 0.0 | 0.00 | 3.02 | 0.00 | 95 | 1009.6 |
| 20260906104837 | 21 | 77 | 0.0 | 0.0 | 0.00 | 3.02 | 0.00 | 95 | 1009.2 |
| 20260906103326 | 21 | 77 | 0.0 | 0.0 | 0.00 | 3.02 | 0.00 | 95 | 1009.3 |
| 20260906101831 | 21 | 77 | 0.0 | 0.0 | 0.00 | 3.02 | 0.00 | 95 | 1009.4 |
| 20260906100328 | 21 | 119 | 0.0 | 0.0 | 0.00 | 3.02 | 0.00 | 95 | 1009.2 |
| 20260906094827 | 21 | 118 | 0.0 | 3.2 | 0.00 | 3.02 | 0.00 | 95 | 1009.3 |
| 20260906093344 | 21 | 128 | 0.0 | 1.6 | 0.00 | 3.02 | 0.00 | 95 | 1009.4 |
| 20260906091850 | 21 | 80 | 0.0 | 0.0 | 0.00 | 3.02 | 0.00 | 95 | 1009.5 |
| 20260906090334 | 21 | 203 | 0.0 | 3.2 | 0.00 | 3.02 | 0.00 | 95 | 1009.4 |
| 20260906084858 | 21 | 213 | 0.0 | 3.2 | 0.00 | 3.02 | 0.00 | 95 | 1009.4 |
| 20260906083343 | 21 | 121 | 0.0 | 3.2 | 0.00 | 3.02 | 0.00 | 94 | 1009.2 |
| 20260906081830 | 21 | 216 | 0.0 | 4.8 | 0.00 | 3.02 | 0.00 | 94 | 1009.0 |
| 20260906080326 | 21 | 164 | 0.0 | 3.2 | 0.00 | 3.02 | 0.00 | 94 | 1009.4 |
| 20260906074830 | 21 | 133 | 0.0 | 3.2 | 0.00 | 3.02 | 0.00 | 94 | 1009.3 |
| 20260906073328 | 21 | 200 | 0.0 | 3.2 | 0.00 | 3.02 | 0.00 | 94 | 1009.5 |
| 20260906071825 | 21 | 172 | 0.0 | 3.2 | 0.00 | 3.02 | 0.00 | 94 | 1009.8 |
| 20260906070331 | 21 | 149 | 3.2 | 6.4 | 0.00 | 3.02 | 0.00 | 94 | 1010.0 |
| 20260906064826 | 21 | 61 | 1.6 | 4.8 | 0.00 | 3.02 | 0.00 | 93 | 1010.2 |
| 20260906063331 | 21 | 78 | 0.0 | 4.8 | 0.94 | 3.02 | 0.00 | 93 | 1010.0 |
| 20260906061827 | 21 | 60 | 1.6 | 6.4 | 1.27 | 3.02 | 0.00 | 92 | 1009.8 |
| 20260906060329 | 21 | 184 | 0.0 | 8.0 | 1.27 | 3.02 | 0.00 | 92 | 1009.8 |
| 20260906054833 | 22 | 235 | 6.4 | 11.3 | 1.27 | 3.02 | 3.02 | 92 | 1010.3 |
| 20260906053357 | 22 | 22 | 4.8 | 19.3 | 1.55 | 2.08 | 2.08 | 91 | 1011.0 |
| 20260906051841 | 22 | 66 | 3.2 | 16.1 | 1.75 | 1.75 | 1.75 | 90 | 1010.5 |
| 20260906050329 | 23 | 141 | 8.0 | 22.5 | 1.75 | 1.75 | 1.75 | 90 | 1011.1 |
| 20260906044833 | 23 | 57 | 3.2 | 19.3 | 1.75 | 1.75 | 1.75 | 85 | 1010.5 |
| 20260906043338 | 26 | 71 | 11.3 | 20.9 | 0.46 | 0.46 | 0.53 | 80 | 1011.1 |
| 20260906041840 | 26 | 47 | 3.2 | 22.5 | 0.00 | 0.00 | 0.00 | 76 | 1010.5 |
| 20260906040328 | 26 | 78 | 8.0 | 20.9 | 0.00 | 0.00 | 0.00 | 74 | 1009.7 |
| 20260906034833 | 26 | 82 | 4.8 | 19.3 | 0.00 | 0.00 | 0.00 | 74 | 1009.7 |
| 20260906033338 | 25 | 28 | 4.8 | 14.5 | 0.00 | 0.00 | 0.00 | 85 | 1010.1 |
| 20260906031842 | 25 | 336 | 1.6 | 3.2 | 0.00 | 0.00 | 0.00 | 83 | 1009.6 |
| 20260906030345 | 25 | 242 | 0.0 | 4.8 | 0.00 | 0.00 | 0.00 | 82 | 1009.2 |
| 20260906024831 | 26 | 229 | 1.6 | 4.8 | 0.00 | 0.00 | 0.00 | 80 | 1009.1 |
| 20260906023329 | 26 | 211 | 3.2 | 4.8 | 0.00 | 0.00 | 0.00 | 80 | 1008.9 |
| 20260906021847 | 26 | 211 | 1.6 | 6.4 | 0.00 | 0.00 | 0.00 | 76 | 1008.6 |
| 20260906020331 | 27 | 53 | 0.0 | 3.2 | 0.00 | 0.00 | 0.00 | 71 | 1008.3 |
| 20260906014839 | 27 | 56 | 1.6 | 6.4 | 0.00 | 0.00 | 0.00 | 71 | 1008.1 |
| 20260906013325 | 27 | 201 | 0.0 | 3.2 | 0.00 | 0.00 | 0.00 | 71 | 1008.2 |
| 20260906011848 | 27 | 182 | 1.6 | 3.2 | 0.00 | 0.00 | 0.00 | 70 | 1008.3 |
| 20260906010334 | 28 | 243 | 1.6 | 11.3 | 0.00 | 0.00 | 0.00 | 70 | 1008.6 |
| 20260906004859 | 27 | 111 | 3.2 | 24.1 | 0.00 | 0.00 | 0.00 | 70 | 1009.0 |
| 20260906003324 | 28 | 208 | 14.5 | 33.8 | 0.00 | 0.00 | 0.00 | 64 | 1008.7 |
| 20260906001829 | 30 | 246 | 11.3 | 27.4 | 0.00 | 0.00 | 0.00 | 61 | 1008.6 |
| 20260906000326 | 33 | 280 | 3.2 | 9.7 | 0.00 | 0.00 | 0.00 | 53 | 1008.5 |
| 20260905234843 | 34 | 109 | 4.8 | 9.7 | 0.00 | 0.00 | 0.00 | 50 | 1008.1 |
| 20260905233345 | 35 | 60 | 3.2 | 8.0 | 0.00 | 0.00 | 0.00 | 48 | 1008.1 |
| 20260905231832 | 37 | 159 | 3.2 | 14.5 | 0.00 | 0.00 | 0.00 | 46 | 1007.8 |
| 20260905230337 | 39 | 221 | 1.6 | 4.8 | 0.00 | 0.00 | 0.00 | 40 | 1007.7 |
| 20260905224843 | 38 | 263 | 1.6 | 6.4 | 0.00 | 0.00 | 0.00 | 40 | 1007.7 |
| 20260905223332 | 38 | 198 | 4.8 | 9.7 | 0.00 | 0.00 | 0.00 | 40 | 1007.7 |
| 20260905221831 | 39 | 242 | 3.2 | 9.7 | 0.00 | 0.00 | 0.00 | 40 | 1007.6 |
| 20260905220338 | 39 | 202 | 6.4 | 11.3 | 0.00 | 0.00 | 0.00 | 39 | 1007.7 |
| 20260905214842 | 40 | 229 | 4.8 | 12.9 | 0.00 | 0.00 | 0.00 | 39 | 1007.8 |
| 20260905213325 | 40 | 210 | 3.2 | 11.3 | 0.00 | 0.00 | 0.00 | 39 | 1007.7 |
| 20260905211830 | 40 | 340 | 3.2 | 12.9 | 0.00 | 0.00 | 0.00 | 38 | 1007.9 |
| 20260905210329 | 41 | 350 | 3.2 | 11.3 | 0.00 | 0.00 | 0.00 | 38 | 1008.0 |
| 20260905204829 | 41 | 327 | 3.2 | 11.3 | 0.00 | 0.00 | 0.00 | 37 | 1008.1 |
| 20260905203324 | 40 | 32 | 1.6 | 8.0 | 0.00 | 0.00 | 0.00 | 38 | 1008.3 |
| 20260905201825 | 39 | 72 | 3.2 | 11.3 | 0.00 | 0.00 | 0.00 | 41 | 1008.3 |
| 20260905200331 | 39 | 39 | 1.6 | 9.7 | 0.00 | 0.00 | 0.00 | 41 | 1008.8 |
| 20260905194830 | 38 | 327 | 1.6 | 11.3 | 0.00 | 0.00 | 0.00 | 42 | 1009.1 |
| 20260905193348 | 39 | 327 | 6.4 | 11.3 | 0.00 | 0.00 | 0.00 | 42 | 1009.2 |
| 20260905191827 | 40 | 229 | 3.2 | 6.4 | 0.00 | 0.00 | 0.00 | 42 | 1009.5 |
| 20260905190331 | 40 | 335 | 4.8 | 11.3 | 0.00 | 0.00 | 0.00 | 41 | 1009.6 |
| 20260905184828 | 39 | 234 | 1.6 | 9.7 | 0.00 | 0.00 | 0.00 | 42 | 1009.7 |
| 20260905183347 | 38 | 34 | 3.2 | 9.7 | 0.00 | 0.00 | 0.00 | 46 | 1010.1 |
| 20260905181830 | 38 | 27 | 1.6 | 8.0 | 0.00 | 0.00 | 0.00 | 47 | 1010.3 |
| 20260905180338 | 38 | 14 | 6.4 | 14.5 | 0.00 | 0.00 | 0.00 | 45 | 1010.5 |
| 20260905174840 | 38 | 132 | 4.8 | 8.0 | 0.00 | 0.00 | 0.00 | 45 | 1010.7 |
| 20260905173325 | 38 | 343 | 1.6 | 9.7 | 0.00 | 0.00 | 0.00 | 47 | 1010.7 |
| 20260905171849 | 38 | 329 | 1.6 | 9.7 | 0.00 | 0.00 | 0.00 | 49 | 1010.8 |
| 20260905170329 | 37 | 333 | 1.6 | 8.0 | 0.00 | 0.00 | 0.00 | 47 | 1011.0 |
| 20260905164826 | 37 | 19 | 1.6 | 8.0 | 0.00 | 0.00 | 0.00 | 51 | 1011.2 |
| 20260905163330 | 36 | 60 | 3.2 | 8.0 | 0.00 | 0.00 | 0.00 | 53 | 1011.4 |